星链-34838 (STARLINK-34838)

导读

STARLINK-34838是美国SpaceX公司于2025年8月27日发射的星链(Starlink)低轨互联网卫星,隶属于全球规模最大的卫星互联网星座。它延续了星链星座全球覆盖、高速低时延的特性,主要面向传统网络基础设施缺失区域提供宽带服务,可支持高清视频通话、在线游戏等需求,也进一步扩充了星链星座的服务容量,助力星链网络覆盖与服务能力持续升级。

基本信息
目录编号:
65343
目录名称:
STARLINK-34838
国际标识:
2025-189W
轨道中心:
EARTH
卫星名称:
星链-34838
卫星全名:
星链-34838 (STARLINK-34838)
卫星状态:
在轨 (已飞行382 天)
发射日期:
2025-08-27 UTC
国别 :
美国 (US)
星等 :
--
该卫星已列入 空间交会检测服务 Space Conjunction Data Service (SCDS) ,当前飞行风险评估等级: 无高风险
轨道信息
数据来源 国际轨道数据
星历时间: 2026-09-12T02:15:27+0800
1天前
查看轨道信息
半长轴: 6840.832km
偏心率: 0.000107
轨道倾角: 53.159°
近地点辐角 90.138°
升交点赤经 60.430°
平近点角 269.974°
近地点: 461.963km
远地点: 463.427km
周期: 93.848分钟
每日圈数: 15.34403
详细信息
固有亮度:
5
最大亮度:
2.5
卫星平台:
Starlink V1.0
覆盖范围:
全球
运营商:
太空探索技术公司
运营商所在国:
美国
制造商(研发单位):
太空探索技术公司
制造商所在国:
美国
使用方式:
暂无
卫星简介
Starlink 计划是 SpaceX 推出的全球卫星互联网项目,通过发射低轨道卫星,为全球尤其是偏远地区提供高速、低延迟的互联网服务。自 2019 年起,Starlink 已部署数千颗卫星,旨在缩小全球数字鸿沟,推动互联网普及。该项目还为军事、航空等行业提供通信支持,带来广泛经济效益。
2D轨道图
3D轨道图
轨道高度分析图
轨道倾角分析图
轨道综合分析图
查看轨道综合分析图
交会数据列表
事件ID 空间交会对象 最接近时刻(TCA) 交会距离 交会风险概率(CRP) 交会风险指数(CRI) 操作
CDM_260914-012204-793706-534323
OBJECT F (47937)
2026-09-14T
01:22:53+0000
2.118 km
极远距离
2.227077E-6 低风险 0.42
CDM_260913-055806-534306-769022
2026-09-13T
05:58:43+0000
2.024 km
极远距离
2.016297E-6 低风险 0.41
CDM_260913-170105-390006-534322
2026-09-13T
17:01:48+0000
2.662 km
极远距离
1.371295E-6 低风险 0.38
CDM_260913-060605-180906-534322
2026-09-13T
06:06:53+0000
2.701 km
极远距离
1.357631E-6 低风险 0.38
CDM_260912-105805-256506-534321
2026-09-12T
10:58:33+0000
2.642 km
极远距离
9.735217E-7 极低风险 0.35
与全量物体交会距离演化趋势
与全量物体交会风险概率演化趋势